Skip Page Navigation
NASA JPL Caltech
NASA Logo - Jet Propulsion Laboratory + View the NASA Portal
+ Center for Near-Earth Object Studies
JPL Home Earth Solar System Stars & Galaxies Technology
JPL Solar System Dynamics
BODIES ORBITS EPHEMERIDES TOOLS PHYSICAL DATA DISCOVERY FAQ SITE MAP
IMPORTANT: The SSD Announcement email list is now available. Major changes are coming in the near future, including possible hostname and/or URL changes. To be notified of such changes, subscribe to this email list.

Please visit this page for more details.


JPL Small-Body Database Browser
Search: [ help ]  
108986 (2001 PJ52)
Classification: Outer Main-belt Asteroid          SPK-ID: 2108986
Ephemeris | Orbit Diagram | Orbital Elements | Mission Design | Physical Parameters | Discovery Circumstances | Close-Approach Data ]

[ show orbit diagram ]
Orbital Elements at Epoch 2459000.5 (2020-May-31.0) TDB
Reference: JPL 15 (heliocentric ecliptic J2000)
 Element Value Uncertainty (1-sigma)   Units 
e .1201803268398897 4.3781e-08  
a 3.220018597417184 3.0762e-08 au
q 2.833035709949064 1.4091e-07 au
i 18.13936848061227 5.2966e-06 deg
node 179.2134137365943 1.4718e-05 deg
peri 61.69972101644704 2.5624e-05 deg
M 180.2670866187337 2.3074e-05 deg
tp 2460054.185758377916
(2023-Apr-19.68575838)
0.00014118 TDB
period 2110.503111978082
5.78
3.0244e-05
8.28e-08
d
yr
n .17057544144656 2.4444e-09 deg/d
Q 3.607001484885305 3.4459e-08 au
  Orbit Determination Parameters
   # obs. used (total)      548  
   data-arc span      7150 days (19.58 yr)  
   first obs. used      2000-06-01  
   last obs. used      2019-12-29  
   planetary ephem.      DE431  
   SB-pert. ephem.      SB431-N16  
   condition code      0  
   norm. resid. RMS      .56598  
   source      ORB  
   producer      Otto Matic  
   solution date      2020-Feb-24 03:17:23  

Additional Information
 Earth MOID = 1.87446 au 
 Jupiter MOID = 1.51038 au 
 T_jup = 3.100 
[ show covariance matrix ]

Ephemeris | Orbit Diagram | Orbital Elements | Mission Design | Physical Parameters | Discovery Circumstances | Close-Approach Data ]

Physical Parameter Table
Parameter Symbol Value Units Sigma Reference Notes
absolute magnitude H 14.7   n/a MPO417558  
diameter diameter 8.449 km 0.245 urn:nasa:pds:neowise_diameters_albedos::2.0[mainbelt] (http://adsabs.harvard.edu/abs/2011ApJ...741...68M)  
geometric albedo albedo 0.039   0.013 urn:nasa:pds:neowise_diameters_albedos::2.0[mainbelt] (http://adsabs.harvard.edu/abs/2011ApJ...741...68M)  

108986 (2001 PJ52)          Discovered 2001-Aug-15 by NEAT at Haleakala
Reference: 20051019/Numbers.arcLast Updated: 2005-10-26

[ show close-approach data ]
Ephemeris | Orbit Diagram | Orbital Elements | Mission Design | Physical Parameters | Discovery Circumstances | Close-Approach Data ]
ABOUT SSD CREDITS/AWARDS PRIVACY/COPYRIGHT GLOSSARY LINKS
FirstGov 2020-Mar-29 23:12 UT
(server date/time)  
NASA Home Page
Site Manager:   Ryan S. Park
Webmaster  Alan B. Chamberlin